Showing default

VIASAT 3-F1, 56370

Orbit data source: Space-Track

VIASAT 3-F1, 56370 is a payload satellite owned by ViaSat (US) in GEO that was launched on Mon, 01 May 2023 UTC via an FALCON HEAVY launch vehicle from the Air Force Eastern Test Range (AFETR). Payload-class satellites include a variety of spacecraft equipped with specific instruments for various scientific and technological missions. These include communications satellites like Starlink; space stations such as the ISS; scientific satellites like the Hubble; Earth observation satellites from companies like Planet Labs, Umbra, and HawkEye 360; GPS; miniature CubeSats for education and research; and military/defense satellites.

Loading next visibility...
Identifier
56370, 2023-060A
Orbit
GEO
Country
Flag of USUS
Related business
Manufacturer
Boeing/ES
Mission
Partially operational Commercial Communications
Bus & Motor
BSS-702MP+, R-4D
Mass
6,418 kg wet, 3,500 kg dry
Launch date (UTC)
2023-05-01 (2 years ago)
Launch vehicle
FALCON HEAVY
Launch site
Air Force Eastern Test Range (AFETR)
Object type
Payload
Rocket body
Debris
Shape & HBR
Box + 2 Pan + 1 Rod + 1 Dish, 22.0 m
Radar Cross Section
58.453 m², Large (>1 m²)

Expand to show TLE details & history
Last TLE update: 1 day ago

TLE from 1 day ago
0 VIASAT 3-F1
1 56370U 23060A   25260.92205769 -.00000206  00000-0  00000-0 0  9996
2 56370   0.0157 228.5298 0000271 274.6151  96.9950  1.00269623  8700
Epoch: 2025-09-17T22:07Z
TLE epoch observation values (Epoch: 2025-09-17T22:07:45.784Z)
Latitude
0.01727°
Longitude
-88.88695°
Altitude
35,786.825 km
Speed
3.075 km/s
True Right ascension
16h 00m 34s
True Declination
0° 01' 02"
Sunlit
Object was in daylight at epoch
Visualization orbit readout
Latitude
Unknown
Longitude
Unknown
Altitude
Unknown
Speed
Unknown
Apparent Right ascension
Unknown
Apparent Declination
Unknown
Sunlit
N/A
Visualization observer readout
Local Sidereal Time
17:40:53
Azimuth
Unknown
Elevation
Unknown
Doppler factor
Unknown
Orbital elements
Apogee altitude
35,789.414 km
Perigee altitude
35,787.129 km
Semi-major axis
42,166.408 km
Eccentricity
0.00003
Inclination
0.0157°
RAAN
228.5298°
Arg. of periapsis
274.6151°
True anomaly
96.99808°
Mean anomaly
96.995°
Eccentric anomaly
96.99654°
Mean motion
0.25066 °/min
Orbital period
1,436.18 mins
BSTAR
0
Loading maneuver chart data...
Computing Atmospheric mass density...
Loading historical data...
Loading historical data...
Loading historical data...
Loading historical data...
Loading historical data...
Loading historical data...
Loading historical data...
Other satellites on launch #60 in the year 2023 (2023-05-01 UTC)

Documentation

Showing up to 5 results
|